Regional Weather Roundup
Issued by NWS

Home | Current Version | Previous Version | Graphics & Text | Print | Product List | Glossary On
Versions: 1 2 3 4 5 6 7 8 9 10 11 12 13 14 15 16 17 18 19 20 21 22 23 24 25 26 27 28 29 30 31 32 33 34 35 36 37 38 39 40 41 42 43 44 45 46 47 48 49 50
000
ASUS43 KIND 131509
RWRIN

WEATHER ROUNDUP FOR INDIANA
NATIONAL WEATHER SERVICE INDIANAPOLIS IN
1000 AM EST SAT FEB 13 2016

NOTE: "FAIR" INDICATES FEW OR NO CLOUDS BELOW 12,000 FEET WITH NO
SIGNIFICANT WEATHER AND/OR OBSTRUCTIONS TO VISIBILITY.

* - STATION DOES NOT REPORT WEATHER SUCH AS PRECIPITATION OR FOG.

+ - STATION NOT QUALITY CONTROLLED BY THE NATIONAL WEATHER SERVICE.
    USE DATA WITH CAUTION...ESPECIALLY DEWPOINT AND RELATIVE
    HUMIDITY OBSERVATIONS.

INZ001>003-010>013-019-020-131600-
NORTHWEST INDIANA

CITY           SKY/WX    TMP DP  RH WIND       PRES   REMARKS
GARY /AIRPORT/ MOSUNNY   10 -11  37 W14       30.60R WCI  -5
KNOX *+        MOSUNNY    9  -4  56 W15       30.55R WCI  -8
LA PORTE +     LGT SNOW  12   5  72 W8        30.53R WCI   0
MICHIGAN CITY+ LGT SNOW  12   3  67 NW10G18   30.54S WCI  -1
MONTICELLO +   SUNNY      9  -8  45 NW12      30.57R WCI  -6
RENSSELAER +   SUNNY     10 -13  34 NW8       30.59R WCI  -1
VALPARAISO     MOSUNNY    8  -4  58 W10       30.56R WCI  -6

$$

LMZ046-743>745-131600-
SOUTHERN LAKE MICHIGAN

STATION/POSITION TIME  TEMP    WIND        PRES    WAVE
                       AIR SEA DIR/SP/G            HT
                 (UTC) (F)     (DEG/KT/KT) (MB)    (FT)
BURNS HARBOR     1400    9     310/ 14/ 19 1034.5R
MICHIGAN CITY    1400   11     280/ 18/ 21   N/A

$$

INZ004-005-014>016-021>024-131600-
NORTH CENTRAL INDIANA

CITY           SKY/WX    TMP DP  RH WIND       PRES   REMARKS
ELKHART        MOSUNNY  N/A N/A N/A MISG      30.50R
GOSHEN         LGT SNOW  10   6  84 W10       30.49R FOG     WCI  -4
LOGANSPORT +   SUNNY     10  -6  48 NW9       30.56R WCI  -2
PERU/GRISSOM   SUNNY      9  -2  61 NW14      30.52R WCI  -7
ROCHESTER +    SUNNY     10  -6  48 W14       30.53R WCI  -5
SOUTH BEND     SNOW      11   7  84 W13       30.50S VSB 1/2 WCI  -4
WARSAW +       PTSUNNY    9   3  78 W13       30.51R HAZE    WCI  -7

$$

INZ006>009-017-018-025>027-131600-
NORTHEAST INDIANA

CITY           SKY/WX    TMP DP  RH WIND       PRES   REMARKS
ANGOLA *+      CLOUDY     9   1  72 W6        30.44R WCI  -1
AUBURN +       CLOUDY    10   3  72 W5        30.49R WCI   2
FORT WAYNE     CLOUDY     8   2  76 W13       30.52R WCI  -8
HUNTINGTON +   SUNNY      8  -3  62 W9        30.52R WCI  -6

$$

INZ028-029-035-036-043>045-051>053-131600-
WEST CENTRAL INDIANA

CITY           SKY/WX    TMP DP  RH WIND       PRES   REMARKS
CRAWFORDSVL +  SUNNY      7  -8  50 NW8       30.58R WCI  -5
GREENCASTLE +  SUNNY     10  -8  44 NW6       30.58R WCI   1
LAFAYETTE      SUNNY      9  -5  53 NW13      30.60R WCI  -7
TERRE HAUTE    MOSUNNY   10  -3  55 NW10      30.62R WCI  -4

$$

INZ030>032-037>040-046>048-054>057-064-065-131600-
CENTRAL INDIANA

CITY           SKY/WX    TMP DP  RH WIND       PRES   REMARKS
ANDERSON       SUNNY     10   1  67 NW12      30.54R WCI  -4
FRANKFORT +    SUNNY     10 -10  39 NW10      30.57R WCI  -3
GREENWOOD *+   MOSUNNY   12   1  62 NW7       30.57R WCI   2
INDIANAPOLIS   MOSUNNY   12  -3  51 NW12      30.56R WCI  -2
-EAGLE CREEK   SUNNY     10  -1  61 NW13      30.56R WCI  -5
KOKOMO *+      SUNNY     10  -2  56 NW13      30.54R WCI  -5
MARION +       SUNNY      8  -6  53 NW10      30.54R WCI  -6
MT COMFORT *+  SUNNY     12   0  57 NW9       30.55R WCI   0
SHELBYVILLE    SUNNY     13   1  59 N9        30.55R WCI   1
ZIONSVILLE +   SUNNY     10  -1  62 NW8       30.56R WCI  -3

$$

INZ033-034-041-042-049-050-058-059-131600-
EAST CENTRAL INDIANA

CITY           SKY/WX    TMP DP  RH WIND       PRES   REMARKS
MUNCIE         SUNNY      9   0  67 NW8       30.53R WCI  -3

$$

INZ060-061-067>069-081>083-085>088-131600-
SOUTHWEST INDIANA

CITY           SKY/WX    TMP DP  RH WIND       PRES   REMARKS
EVANSVILLE     SUNNY     19   1  45 NW12      30.65R WCI   7
HUNTINGBURG *+ SUNNY     18   0  45 N10G17    30.62R WCI   6
WASHINGTON +   SUNNY     14  -4  44 N8        30.63S WCI   3

$$

INZ062-063-066-070>080-084-089>092-131600-
SOUTH CENTRAL AND SOUTHEAST INDIANA

CITY           SKY/WX    TMP DP  RH WIND       PRES   REMARKS
BEDFORD +      SUNNY     14   0  52 N7        30.59R WCI   4
BLOOMINGTON    SUNNY     12  -2  53 N6        30.57R WCI   3
MADISON *+     MOSUNNY   16   1  53 N5        30.58R WCI   9
SEYMOUR +      SUNNY     16   0  48 N8        30.59R WCI   5

$$




USA.gov is the U.S. government's official web portal to all federal, state and local government web resources and services.